Temp
61 61 61 61 61 61 61 61 61 61 61 62 62 62 62 62 62 79 87 90 90 78 77 101 101 102 102 99 103 103 87 84 88 89 91 99 95 100 104 99 99 99 99 101 99
61 61 61 61 61 61 61 61 61 61 61 62 62 62 62 62 82 88 86 77 78 77 93 96 95 99 95 96 98 93 86 88 97 96 94 97 97 98 95 96 96 97 99 99 98
60 61 61 61 61 60 60 60 61 60 61 62 62 62 62 67 82 93 76 76 76 79 97 101 101 99 92 97 95 94 86 96 95 96 97 96 97 100 96 93 98 97 95 97 97
60 60 60 60 60 60 60 60 60 61 61 62 62 62 62 79 78 94 78 76 75 93 97 97 96 91 89 88 96 88 94 96 97 97 96 95 98 95 98 99 105 105 101 97 96
59 59 59 59 59 59 59 59 60 61 61 61 62 62 70 82 88 94 79 77 90 95 96 95 92 92 87 92 94 90 93 96 98 97 97 98 95 96 98 104 105 105 101 97 98
59 59 59 59 59 59 59 59 59 60 61 61 62 62 78 79 100 99 97 93 97 97 97 98 95 97 93 92 92 95 93 94 97 96 97 94 95 96 99 104 101 102 101 99 99
59 58 58 59 59 59 59 58 59 60 61 62 63 74 82 87 100 100 99 99 99 99 94 99 99 93 94 90 97 93 88 91 93 95 93 97 89 91 101 103 100 100 101 101 100
58 58 58 58 59 59 59 59 59 60 62 63 63 80 82 99 103 97 100 97 99 99 97 99 99 95 93 97 90 86 87 80 91 93 94 93 81 94 102 100 98 100 101 101 101
58 58 57 58 59 59 59 59 61 62 63 64 72 81 85 83 92 99 100 94 95 96 96 96 95 91 92 84 82 85 77 80 84 96 93 91 84 95 102 100 97 99 101 101 102
58 57 57 58 59 59 59 60 61 62 68 80 86 79 89 88 94 97 101 97 92 92 89 89 89 84 86 84 73 79 79 82 82 90 91 88 87 93 99 99 96 98 100 101 101
58 57 57 58 59 59 63 76 76 75 82 83 86 84 88 94 97 94 97 94 93 89 82 86 81 78 84 86 86 83 80 79 85 90 84 84 86 91 96 97 97 97 98 100 101
57 57 57 58 59 59 70 86 86 89 81 89 88 88 91 94 86 91 98 87 85 80 86 82 77 87 86 84 81 81 78 79 84 89 85 83 83 89 93 94 97 97 97 99 101
56 56 57 58 59 64 85 89 96 93 79 84 88 88 89 92 86 87 92 89 84 81 83 79 83 85 81 81 77 79 77 78 78 84 86 82 79 83 91 95 97 98 99 100 101
56 56 56 58 60 91 88 94 98 94 75 77 83 85 89 91 80 90 92 87 85 81 84 82 87 81 80 79 81 74 85 82 79 77 71 85 69 82 88 89 92 95 97 99 100
56 56 57 53 79 89 91 98 97 89 60 81 81 94 90 84 83 82 91 88 80 81 81 79 80 79 77 80 82 77 84 80 80 77 75 77 73 79 87 84 89 93 96 99 101
56 57 56 68 81 94 97 96 90 70 59 73 80 79 79 81 80 83 83 88 85 80 83 82 87 82 79 82 83 84 80 79 79 77 66 74 74 75 82 86 89 93 94 95 97
56 57 59 88 88 97 96 88 70 64 77 69 70 76 76 72 72 77 74 72 71 66 71 79 78 82 80 76 84 82 75 65 64 66 65 79 75 78 86 90 86 83 84 85 88
56 57 66 93 95 94 89 77 61 69 69 73 71 74 69 72 70 71 72 69 70 70 71 69 64 73 76 73 70 73 72 64 53 58 66 77 68 78 88 87 86 84 82 82 83
54 80 91 90 92 91 81 68 67 67 68 66 71 69 66 69 71 68 65 64 64 67 62 64 66 74 74 76 75 70 68 73 64 67 63 70 76 84 80 78 77 77 77 76 79
83 89 85 90 91 86 77 58 66 67 68 70 65 67 65 65 67 68 63 63 62 66 70 63 58 70 72 77 77 70 74 63 67 53 52 65 68 62 67 69 71 71 72 74 77
80 82 86 92 90 82 71 68 65 68 68 66 64 63 65 63 66 63 60 61 63 64 68 64 59 66 70 65 62 66 67 63 63 61 55 54 64 74 70 70 68 70 72 73 73
83 75 87 90 77 79 72 67 58 66 69 65 66 65 63 63 61 60 58 59 64 65 59 62 59 55 61 67 69 66 60 59 52 52 57 54 57 79 77 76 72 71 72 73 74
80 80 87 86 70 69 66 65 65 63 63 63 60 64 65 61 55 59 57 62 64 62 56 60 56 53 56 61 64 59 60 60 59 56 49 48 55 76 74 68 70 68 70 71 71
80 72 76 80 77 68 62 61 57 64 62 64 62 65 61 58 62 56 55 58 63 61 53 57 56 52 50 52 57 53 56 58 55 48 51 53 56 62 64 64 66 68 69 71 70
78 64 66 65 67 66 66 64 58 55 60 63 59 61 60 54 56 55 57 57 59 56 59 58 52 53 56 56 55 54 54 55 52 54 47 52 52 58 59 58 60 64 67 67 66
73 70 71 66 66 64 58 60 57 58 60 56 57 59 61 57 58 54 57 58 56 59 58 58 51 53 52 56 56 52 54 53 51 51 50 51 49 54 58 59 58 59 58 58 61
75 76 73 57 63 61 59 58 57 60 59 62 61 61 57 56 62 62 63 61 59 57 54 53 52 50 47 53 55 42 47 50 50 52 41 34 42 50 48 50 53 53 48 50 55
MSLP
1015.65 1015.46 1015.28 1015.02 1014.94 1014.83 1014.67 1014.54 1014.45 1014.35 1014.11 1013.95 1013.93 1013.73 1013.49 1013.35 1013.06 1012.13 1009.75 1008.61 1008.31 1009.12 1009.09 1007.51 1006.79 1006.22 1005.89 1004.93 1003.87 1003.45 1002.21 1000.03 999.01 998.67 998.66 999.48 999.67 999.94 1000.05 1000.48 1001.58 1002.47 1002.85 1003.70 1005.77
1015.60 1015.37 1015.04 1014.83 1014.69 1014.63 1014.45 1014.34 1014.28 1014.15 1014.01 1013.75 1013.68 1013.55 1013.47 1013.33 1011.84 1009.53 1007.94 1008.31 1008.76 1009.14 1008.55 1006.94 1005.93 1005.48 1004.92 1004.42 1003.63 1003.10 1001.87 999.85 998.79 999.19 999.57 999.77 999.88 999.61 1000.77 1000.65 1001.26 1002.50 1003.83 1004.73 1005.83
1015.45 1015.17 1014.94 1014.73 1014.50 1014.33 1014.24 1014.13 1014.04 1013.96 1013.83 1013.61 1013.53 1013.50 1013.46 1013.23 1010.55 1007.09 1008.11 1008.33 1008.65 1008.98 1007.94 1006.58 1005.65 1004.75 1004.32 1003.81 1003.10 1002.49 1001.55 999.84 999.77 1000.58 1000.87 1000.40 999.89 999.17 1000.05 999.89 1000.29 1001.31 1003.35 1004.59 1005.48
1015.30 1014.93 1014.65 1014.41 1014.19 1014.07 1013.99 1013.89 1013.91 1013.82 1013.69 1013.57 1013.53 1013.55 1013.46 1012.23 1007.92 1007.17 1008.05 1008.32 1008.60 1008.18 1007.31 1006.23 1005.58 1004.79 1004.04 1003.11 1002.63 1002.13 1001.72 1000.67 1000.31 1000.75 1001.28 1000.48 1000.21 999.79 999.93 999.57 999.00 1000.30 1002.42 1004.03 1004.90
1015.23 1014.84 1014.49 1014.27 1014.01 1013.90 1013.82 1013.73 1013.71 1013.64 1013.58 1013.56 1013.54 1013.51 1013.18 1010.13 1007.02 1007.27 1008.01 1008.30 1008.21 1007.60 1006.29 1005.49 1004.99 1004.26 1003.39 1002.72 1002.21 1001.94 1001.49 1001.13 1000.95 1001.20 1001.20 1000.96 1000.60 1000.08 999.73 999.69 999.99 1000.89 1002.32 1003.49 1004.15
1015.11 1014.72 1014.39 1014.11 1013.89 1013.72 1013.69 1013.61 1013.57 1013.55 1013.53 1013.48 1013.55 1013.55 1011.93 1008.27 1006.44 1006.60 1006.95 1007.57 1006.84 1006.49 1005.63 1004.97 1004.36 1003.86 1003.15 1002.47 1001.81 1001.37 1001.73 1001.38 1000.66 1001.11 1001.01 1000.91 1000.29 1000.25 1000.13 1000.02 1000.38 1000.89 1001.57 1002.89 1003.42
1014.89 1014.50 1014.25 1013.94 1013.76 1013.46 1013.47 1013.51 1013.48 1013.43 1013.34 1013.39 1013.47 1012.88 1010.04 1006.86 1006.49 1006.55 1006.65 1006.18 1006.30 1005.98 1005.45 1005.19 1004.75 1004.53 1003.56 1002.60 1002.31 1001.95 1001.61 1001.35 1000.82 1000.89 1000.77 1000.86 1000.38 999.90 999.84 999.58 1000.27 1000.87 1001.27 1002.07 1002.90
1014.75 1014.35 1014.01 1013.67 1013.46 1013.27 1013.38 1013.40 1013.37 1013.31 1013.25 1013.30 1013.36 1011.95 1007.94 1006.45 1006.45 1006.60 1006.33 1006.31 1006.40 1006.30 1005.94 1005.34 1005.46 1004.59 1003.69 1002.76 1002.84 1002.39 1001.83 1000.94 1000.39 1000.79 1000.63 1000.67 999.90 999.79 999.62 999.51 1000.02 1000.27 1000.64 1001.39 1002.19
1014.50 1014.17 1013.84 1013.56 1013.31 1013.17 1013.28 1013.27 1013.27 1013.14 1013.16 1013.18 1012.74 1010.61 1006.37 1007.31 1006.47 1006.02 1006.07 1005.76 1006.24 1006.26 1006.14 1006.07 1005.51 1004.39 1003.65 1003.22 1002.25 1001.48 1000.79 1000.14 999.67 999.33 999.82 999.91 999.89 999.39 998.89 998.93 999.64 999.81 1000.09 1000.57 1001.23
1014.32 1014.05 1013.70 1013.42 1013.19 1013.11 1013.25 1013.29 1013.20 1013.25 1013.02 1011.97 1010.49 1009.06 1006.31 1005.32 1005.67 1005.71 1005.88 1005.97 1005.85 1005.83 1005.79 1005.70 1004.85 1003.92 1003.20 1002.24 1000.77 1000.03 999.91 999.79 999.10 999.23 999.34 999.53 999.49 999.56 998.98 998.65 999.37 999.84 999.85 999.84 1000.22
1014.21 1013.85 1013.53 1013.39 1013.23 1013.17 1013.07 1012.73 1012.51 1011.37 1009.98 1007.50 1006.79 1006.07 1005.34 1005.53 1005.84 1005.67 1005.81 1005.68 1005.46 1005.30 1004.39 1004.60 1003.65 1002.38 1001.61 1001.42 1001.17 1001.06 1000.74 1000.22 999.75 999.77 1000.15 1000.13 999.68 999.33 999.03 998.72 998.71 999.44 999.54 999.54 999.64
1013.95 1013.67 1013.48 1013.42 1013.27 1013.31 1012.83 1009.08 1008.50 1008.12 1006.75 1006.38 1006.13 1005.81 1005.65 1005.35 1004.93 1005.16 1005.55 1005.18 1004.94 1004.12 1003.64 1003.67 1002.72 1001.71 1002.01 1002.51 1002.53 1002.05 1001.45 1000.86 1000.54 1000.45 1000.68 1000.68 1000.17 999.79 999.20 998.80 998.59 998.70 998.98 999.05 999.12
1013.73 1013.44 1013.36 1013.38 1013.33 1013.14 1010.17 1008.20 1007.97 1007.80 1006.61 1005.69 1005.38 1004.80 1005.21 1005.31 1004.39 1004.87 1005.49 1004.91 1004.13 1003.60 1002.93 1002.47 1001.85 1002.77 1002.97 1002.63 1002.59 1001.96 1001.53 1001.10 1000.87 1000.61 1001.01 1000.73 1000.07 999.60 999.14 998.81 998.59 998.63 998.73 998.75 998.67
1013.35 1013.20 1013.17 1013.23 1013.43 1009.35 1008.33 1007.97 1007.55 1007.70 1005.55 1004.99 1004.51 1004.93 1005.08 1004.77 1005.47 1006.01 1005.70 1005.26 1003.96 1003.19 1002.65 1002.28 1001.98 1002.72 1002.94 1002.51 1002.27 1001.59 1001.24 1001.27 1001.25 1001.28 1000.30 999.68 998.64 997.99 997.83 997.58 997.98 998.27 998.44 998.38 998.70
1012.87 1012.82 1012.89 1013.07 1011.19 1008.10 1007.85 1007.52 1007.41 1007.67 1004.56 1004.11 1004.68 1005.13 1004.73 1004.81 1005.67 1006.19 1006.20 1005.43 1004.26 1003.39 1003.79 1001.97 1002.70 1002.89 1002.70 1002.12 1002.38 1002.19 1001.89 1002.20 1001.79 1001.22 1000.70 999.95 999.06 998.00 997.85 997.43 997.46 997.74 998.21 998.34 998.23
1012.37 1012.36 1012.62 1012.42 1010.65 1007.92 1007.68 1007.65 1007.74 1006.57 1003.88 1004.51 1005.05 1004.85 1005.27 1005.67 1006.15 1006.24 1006.23 1006.13 1005.76 1005.00 1004.11 1003.23 1003.59 1003.89 1003.93 1003.72 1003.29 1003.06 1002.71 1002.41 1001.89 1001.13 1000.01 999.51 998.98 997.70 997.25 997.13 997.13 998.03 998.93 999.22 999.20
1011.96 1012.03 1012.31 1009.60 1007.87 1007.97 1007.77 1007.26 1006.23 1004.77 1004.94 1005.65 1005.99 1005.67 1005.70 1006.47 1007.09 1006.77 1006.99 1007.23 1006.51 1006.00 1004.31 1003.68 1003.81 1004.53 1005.52 1004.31 1002.96 1002.77 1002.73 1001.94 1000.81 999.82 998.71 998.27 997.77 997.07 997.27 998.05 999.23 1000.43 1001.71 1002.42 1002.23
1011.99 1012.02 1010.80 1009.11 1008.50 1008.20 1007.76 1006.74 1005.67 1005.66 1006.21 1007.18 1007.20 1006.65 1006.61 1007.17 1008.01 1008.05 1007.81 1008.27 1009.27 1008.37 1006.21 1004.96 1005.17 1005.84 1006.56 1006.25 1005.34 1004.59 1004.33 1003.63 1002.25 1001.29 999.74 999.00 998.16 997.56 998.51 1000.00 1001.51 1003.00 1004.11 1004.61 1004.51
1012.19 1010.77 1008.99 1008.92 1008.70 1008.36 1007.34 1005.88 1006.29 1007.42 1008.52 1008.21 1007.65 1007.05 1007.56 1007.98 1008.02 1009.07 1010.16 1010.53 1011.49 1010.97 1009.49 1008.15 1006.76 1007.39 1007.65 1007.47 1006.93 1005.87 1005.48 1005.95 1004.95 1004.01 1002.53 1001.22 1000.01 999.41 1001.08 1002.74 1004.22 1005.18 1005.74 1006.02 1006.30
1010.86 1008.86 1008.84 1008.84 1008.53 1008.01 1006.91 1007.33 1008.53 1009.89 1009.90 1009.25 1007.87 1008.15 1007.19 1008.47 1008.50 1009.09 1010.93 1013.11 1012.84 1012.95 1012.07 1011.20 1009.61 1008.53 1008.64 1008.09 1007.63 1008.15 1008.04 1006.81 1005.91 1004.73 1003.35 1001.97 1001.09 1001.89 1003.75 1005.33 1006.66 1007.40 1007.74 1007.79 1007.63
1010.90 1008.15 1008.81 1008.40 1007.99 1006.97 1006.61 1008.12 1010.25 1011.11 1011.09 1010.24 1009.58 1009.45 1009.25 1009.58 1009.64 1010.72 1012.39 1014.53 1014.66 1014.08 1013.53 1013.17 1012.27 1009.36 1009.39 1009.45 1009.80 1009.28 1008.63 1009.61 1009.47 1008.20 1005.94 1004.48 1003.31 1003.82 1005.61 1007.16 1008.17 1008.86 1009.26 1009.40 1009.51
1009.79 1007.71 1008.87 1008.37 1007.25 1007.22 1007.98 1009.95 1011.84 1011.90 1011.94 1011.93 1011.45 1011.08 1010.85 1011.11 1011.40 1012.41 1013.67 1015.11 1016.05 1015.39 1014.67 1015.05 1013.87 1011.91 1011.00 1011.89 1012.13 1012.02 1012.48 1012.61 1011.87 1010.16 1009.47 1008.59 1005.96 1005.38 1006.18 1007.01 1009.11 1010.04 1010.52 1010.65 1010.72
1009.03 1008.36 1008.98 1008.25 1007.20 1008.30 1010.52 1011.50 1012.35 1012.77 1012.85 1012.65 1012.73 1012.61 1012.76 1012.59 1013.15 1014.04 1015.50 1016.95 1016.82 1016.72 1017.11 1016.50 1014.84 1012.91 1012.13 1012.81 1013.45 1013.64 1014.35 1014.65 1014.38 1013.89 1012.43 1010.85 1008.39 1007.61 1007.89 1008.93 1010.40 1010.97 1011.07 1011.01 1011.03
1009.53 1008.45 1009.17 1008.85 1008.96 1009.58 1011.13 1012.01 1013.38 1014.15 1014.13 1013.93 1013.85 1013.62 1013.65 1013.74 1014.12 1015.16 1016.51 1017.69 1017.90 1018.34 1018.91 1018.05 1016.31 1015.29 1014.23 1014.41 1015.13 1015.19 1015.58 1015.93 1015.92 1015.34 1013.90 1013.01 1011.53 1011.64 1011.78 1011.94 1011.95 1012.13 1012.10 1011.59 1011.17
1010.27 1010.97 1011.31 1010.27 1010.60 1011.20 1011.77 1012.57 1013.67 1014.39 1015.07 1014.81 1014.63 1014.19 1014.33 1014.69 1015.15 1015.97 1017.12 1018.01 1018.46 1019.17 1018.78 1018.17 1016.65 1016.79 1016.09 1016.30 1016.58 1016.61 1016.71 1016.95 1017.09 1017.06 1016.71 1015.77 1015.01 1014.91 1015.10 1015.43 1015.41 1014.36 1012.94 1012.34 1012.41
1010.84 1011.21 1011.67 1012.03 1012.25 1012.51 1013.39 1013.51 1014.29 1014.91 1014.90 1015.20 1015.05 1015.44 1015.30 1015.49 1015.56 1016.44 1017.17 1017.39 1017.99 1018.74 1018.63 1018.66 1017.35 1017.36 1016.43 1016.45 1016.92 1017.05 1018.04 1018.67 1019.26 1019.70 1019.67 1018.99 1018.21 1018.69 1018.29 1018.06 1017.55 1016.65 1016.63 1015.52 1014.55
1012.90 1012.54 1012.16 1013.19 1012.94 1013.38 1014.23 1014.77 1015.39 1015.72 1016.50 1016.16 1016.08 1016.11 1016.87 1017.89 1017.65 1018.02 1018.41 1018.72 1018.95 1018.76 1018.81 1018.68 1018.19 1017.43 1016.52 1017.27 1016.99 1019.06 1020.42 1020.65 1021.43 1022.04 1023.40 1022.97 1022.73 1021.87 1020.62 1020.28 1019.50 1019.05 1019.64 1018.83 1017.47
Wind_Speed
11 10 9 8 8 8 9 9 9 9 9 9 9 8 9 10 13 10 13 3 4 3 3 13 12 14 16 17 16 13 13 16 15 10 2 6 10 3 2 7 5 4 7 16 19
10 10 9 9 8 8 9 8 8 9 9 8 8 8 9 9 14 18 3 9 5 2 11 13 15 16 15 19 17 15 14 22 4 6 9 4 10 17 7 7 8 10 8 18 19
11 10 9 8 8 7 8 9 8 8 9 8 7 7 9 10 15 7 7 5 4 7 15 14 14 14 17 20 20 17 18 22 6 2 6 11 9 9 13 15 11 17 15 17 19
12 11 10 9 8 7 8 8 8 8 8 7 7 7 7 12 3 9 3 5 8 11 14 12 12 15 18 20 21 20 18 23 6 5 9 11 7 5 11 12 6 8 20 18 18
13 12 10 9 7 7 7 8 8 7 7 7 6 5 7 9 9 11 7 8 13 13 14 14 15 15 17 16 19 21 16 17 13 8 12 9 11 11 10 13 6 6 18 17 17
12 11 10 9 7 6 7 7 6 6 6 6 6 5 9 14 6 3 5 10 9 11 12 12 10 10 14 15 16 17 13 23 14 15 15 14 14 8 15 12 5 7 17 17 18
13 12 11 9 7 5 5 7 6 6 6 6 7 7 11 10 2 4 8 4 6 9 7 10 6 8 9 12 13 11 15 16 19 16 16 13 16 15 16 6 11 11 13 17 17
13 12 11 10 7 4 5 5 5 5 6 6 6 11 9 5 2 6 7 5 5 4 8 4 8 13 12 9 5 14 16 17 20 24 22 18 15 20 16 12 13 15 15 16 19
14 12 11 10 7 3 4 5 5 5 5 7 9 10 7 5 10 11 9 7 7 5 4 5 9 12 10 12 14 13 14 19 17 20 21 20 18 20 17 18 14 14 14 14 16
14 11 11 9 2 5 5 4 8 7 8 10 10 8 8 4 6 8 9 5 7 8 8 11 9 11 13 14 13 11 17 13 10 13 10 15 18 19 20 14 12 16 16 15 18
14 12 10 8 2 7 9 7 8 8 10 10 7 5 5 6 8 11 10 11 7 11 13 13 11 13 16 12 14 13 13 13 13 5 1 13 16 20 23 24 15 15 19 18 17
14 11 8 6 3 4 9 8 8 8 6 6 3 6 1 1 8 10 12 12 10 13 11 7 14 9 4 6 8 12 13 15 13 12 8 13 18 18 19 19 20 18 19 20 19
13 10 6 3 3 4 12 4 5 5 9 8 2 3 12 11 2 10 12 12 9 12 10 14 8 6 3 12 11 13 13 13 14 11 12 15 18 19 19 20 21 22 22 21 21
11 7 4 3 2 9 9 1 7 2 8 12 10 5 9 9 6 5 4 9 10 11 11 11 3 4 10 11 11 13 10 8 10 13 13 14 11 13 15 20 22 22 22 18 19
10 6 7 17 12 8 6 7 5 5 7 8 7 4 6 4 8 6 2 9 14 4 8 6 7 10 10 5 4 12 11 9 13 13 15 17 12 14 15 15 16 12 14 19 22
7 6 9 6 8 5 7 3 5 9 2 7 4 5 10 6 6 4 2 3 6 10 12 14 5 4 11 14 11 11 12 16 17 16 17 18 18 16 15 17 6 10 9 13 18
4 9 9 8 5 8 7 7 8 9 3 5 5 2 8 5 6 8 10 11 7 7 14 14 1 11 9 12 13 12 11 11 14 15 14 17 16 13 7 11 23 22 23 23 24
2 8 9 2 7 7 7 10 11 7 7 3 2 4 3 5 5 4 6 7 13 14 10 8 10 6 6 8 10 13 10 12 18 14 17 21 13 7 5 21 20 20 20 22 24
1 6 3 5 6 5 9 11 6 7 3 2 6 11 6 4 4 6 12 7 10 13 9 7 2 4 5 9 8 9 9 13 13 16 17 17 22 22 20 23 23 23 24 24 23
6 5 6 8 4 7 9 5 5 4 3 6 6 5 5 3 8 4 5 8 4 9 9 7 8 7 8 9 7 7 12 10 9 18 19 15 16 7 17 18 19 22 23 23 23
7 6 7 8 6 8 7 8 7 4 1 6 1 2 3 3 4 5 8 8 7 6 6 9 2 4 7 9 11 11 5 8 9 9 13 16 10 13 15 14 18 21 22 22 23
6 5 7 5 7 4 4 6 4 7 4 3 5 6 3 2 5 5 8 11 5 6 4 7 6 8 7 6 6 10 11 9 8 10 15 14 16 7 2 16 23 23 23 21 23
5 4 5 5 4 5 8 11 7 3 4 2 4 4 0 3 5 10 9 7 7 11 7 8 4 7 13 11 6 7 9 12 11 12 16 16 13 22 28 27 27 28 25 22 24
4 4 5 3 5 12 12 9 9 7 9 7 7 6 7 6 7 9 11 5 8 11 6 7 2 6 8 11 10 11 13 12 11 11 16 17 26 23 27 29 30 28 27 26 23
5 4 5 4 6 6 1 7 11 6 5 2 4 3 9 6 10 11 11 9 4 4 2 6 2 4 5 4 6 8 9 9 11 13 16 21 24 24 28 33 31 32 32 25 25
2 3 5 8 8 8 1 8 9 9 1 3 8 5 4 8 6 10 6 4 5 4 3 2 3 6 12 7 8 9 14 14 18 21 24 28 28 30 31 29 28 27 27 27 27
6 4 2 4 6 7 6 4 9 8 8 6 7 9 12 9 9 8 8 6 6 4 6 3 6 5 5 7 11 11 12 16 18 19 18 15 23 29 33 30 28 23 21 23 24
Wind_Direction
336 326 315 309 293 285 279 278 277 278 280 282 284 290 295 295 287 237 248 256 89 63 285 258 227 229 238 253 257 256 270 256 229 236 341 109 235 147 29 108 135 88 63 118 140
335 327 320 311 298 290 283 274 275 277 279 284 289 293 287 294 271 263 173 133 116 79 228 229 228 226 232 236 244 236 243 253 349 55 341 1 269 156 199 202 157 125 116 125 156
336 330 320 309 299 288 282 277 272 272 276 284 287 284 279 282 266 215 81 114 145 227 247 244 259 239 232 232 234 231 252 257 123 240 321 306 230 184 197 190 200 167 152 154 166
337 332 326 317 305 289 275 269 267 263 272 273 274 270 276 256 299 87 58 188 195 234 234 234 235 234 237 232 231 238 243 263 309 109 245 280 349 234 238 235 125 145 148 162 176
340 333 327 317 305 289 272 264 263 259 263 266 266 266 256 223 258 125 177 166 194 210 220 213 223 231 236 237 233 237 245 251 259 252 253 279 257 252 220 241 106 187 147 171 184
339 335 327 319 301 282 262 256 255 251 252 257 247 238 247 252 69 77 136 165 193 216 219 228 231 250 269 264 245 238 231 256 241 242 238 243 254 182 237 223 183 203 166 180 189
339 338 329 320 299 272 255 247 235 240 243 242 229 245 263 258 35 139 185 200 171 226 231 240 292 245 219 263 251 275 268 266 257 252 250 249 245 256 247 166 182 192 187 183 194
340 338 333 325 310 273 240 222 224 233 236 228 226 245 265 91 261 210 195 175 189 227 290 302 245 259 260 281 260 241 243 247 229 222 233 243 257 228 222 194 223 193 192 196 187
341 339 336 329 313 235 191 198 212 216 221 212 222 233 235 137 202 197 205 198 183 209 224 260 238 241 206 248 237 213 244 231 246 216 219 219 233 257 229 210 220 240 201 208 203
339 337 337 334 331 162 173 222 166 183 214 210 267 248 223 188 126 186 189 187 188 185 185 209 218 225 221 223 240 238 208 227 262 224 212 265 255 241 258 226 215 238 250 232 205
334 336 336 330 269 182 162 172 196 187 215 272 150 302 112 93 165 186 181 201 188 206 223 210 225 221 233 217 284 333 307 305 306 254 332 281 275 250 238 256 215 234 241 243 247
331 330 332 318 265 234 261 257 38 359 251 203 249 257 307 296 156 169 193 212 200 228 209 187 228 262 20 310 269 265 260 260 260 263 284 271 265 256 266 261 261 253 244 250 242
325 321 316 291 149 219 259 17 320 336 254 151 116 165 174 217 84 151 201 225 239 238 205 259 60 44 224 233 239 247 261 276 283 298 220 267 266 261 259 255 254 249 253 255 256
322 305 264 170 208 216 217 206 295 314 257 143 186 107 163 213 126 354 355 292 228 256 237 254 285 195 248 248 259 273 264 292 276 259 259 241 287 268 249 227 231 243 246 254 249
315 270 220 226 322 229 37 320 323 218 233 97 81 153 181 183 121 104 328 244 275 226 249 140 179 214 238 285 23 287 327 285 284 276 279 265 260 258 257 256 259 235 244 252 251
313 210 174 190 233 309 310 326 225 231 163 108 86 183 111 98 54 124 143 286 348 287 252 278 92 311 355 313 286 275 287 273 266 258 252 250 253 266 264 275 241 216 320 333 350
341 175 199 306 320 334 301 232 226 256 156 102 81 114 74 110 76 74 87 64 19 278 220 206 266 97 1 300 250 239 265 272 257 235 242 237 233 251 350 354 50 43 31 22 10
353 171 210 302 309 296 254 234 258 47 36 74 152 179 126 148 90 128 155 103 30 338 295 289 167 353 23 359 324 294 298 288 304 299 312 322 302 357 73 73 63 47 30 19 11
68 206 188 359 314 267 254 236 358 37 17 302 208 212 144 120 164 125 65 57 29 13 335 319 136 89 34 329 334 1 274 344 293 279 270 272 268 255 65 50 33 27 13 8 3
267 215 64 322 302 249 244 33 86 48 315 236 251 287 184 108 198 185 94 30 33 14 336 41 289 85 344 283 211 348 330 306 271 269 267 269 282 54 53 40 25 11 4 360 356
261 231 38 325 267 236 276 68 94 70 5 326 50 138 55 136 8 78 58 72 11 19 9 352 275 343 301 47 344 331 346 354 318 291 294 288 284 80 83 55 16 2 354 353 347
282 247 10 314 219 317 148 115 60 92 111 75 45 51 46 128 90 89 91 44 9 329 33 37 316 298 335 71 32 49 34 2 334 324 321 301 273 325 286 30 3 350 338 340 333
261 22 37 276 233 137 119 108 71 117 36 94 105 45 177 107 122 110 107 59 39 25 26 358 110 278 152 163 154 45 344 333 311 284 273 282 284 321 331 341 343 332 323 326 323
264 206 86 42 23 126 153 135 119 74 65 70 101 109 116 108 86 130 123 82 50 64 342 285 64 352 340 350 346 316 330 329 312 291 306 296 308 319 325 329 326 326 323 316 323
329 60 343 138 95 89 188 141 140 121 92 23 95 139 132 119 109 109 111 129 112 129 158 343 89 322 316 280 301 306 294 322 312 328 318 326 314 320 338 337 331 319 320 328 327
38 123 86 98 119 114 166 95 107 90 23 115 125 124 197 104 27 122 133 128 76 117 55 35 70 295 269 138 289 277 43 358 14 352 329 318 311 342 325 324 316 319 326 331 322
87 85 92 180 123 87 78 86 107 122 62 52 124 127 102 73 56 66 53 70 88 28 60 8 342 319 314 330 272 85 28 17 348 341 13 343 326 345 329 323 314 336 349 331 319